Time (yr/mo/day/hr) Wind Speed at 50 metres (Glencore Tower; km/hr) Wind Direction at 50 metres (Glencore Tower; degrees) Temperature (oC) SO2 Dispersion Conditions Mixing Height (m)
2019 05 23 13 5 215 13 Very unstable 1241
2019 05 23 14 15 270 17 Neutral 992
2019 05 23 15 13 276 20 Moderately unstable 1622
2019 05 23 16 21 273 20 Slightly unstable 1716
2019 05 23 17 23 285 20 Neutral 1716
2019 05 23 18 23 296 19 Neutral 1606
2019 05 23 19 21 299 18 Neutral 1518
2019 05 23 20 18 293 16 Neutral 1066
2019 05 23 21 18 293 15 Neutral 1155
2019 05 23 22 19 311 13 Neutral 1211
2019 05 23 23 16 339 11 Neutral 1072
2019 05 24 00 15 2 11 Neutral 979
2019 05 24 01 17 4 10 Neutral 1214
2019 05 24 02 18 4 8 Neutral 1301
2019 05 24 03 18 6 7 Neutral 1299
2019 05 24 04 19 9 7 Neutral 1179
2019 05 24 05 16 11 7 Slightly stable 883
2019 05 24 06 18 13 9 Neutral 989
2019 05 24 07 17 11 9 Slightly unstable 1558
2019 05 24 08 15 16 9 Slightly unstable 876
2019 05 24 09 14 26 10 Moderately unstable 927
2019 05 24 10 14 35 11 Slightly unstable 984
2019 05 24 11 13 44 12 Moderately unstable 1040
2019 05 24 12 11 52 14 Moderately unstable 1088
2019 05 24 13 10 53 15 Very unstable 1152